Regional Weather Roundup
Issued by NWS

Home | Current Version | Previous Version | Text Only | Print | Product List | Glossary On
Versions: 1 2 3 4 5 6 7 8 9 10 11 12 13 14 15 16 17 18 19 20 21 22 23 24 25 26 27 28 29 30 31 32 33 34 35 36 37 38 39 40 41 42 43 44 45 46 47 48 49 50
903
ASUS44 KJAN 311010
RWRMS

MISSISSIPPI HOURLY WEATHER ROUNDUP
NATIONAL WEATHER SERVICE JACKSON MS
500 AM CDT TUE MAY 31 2016

NOTE: "FAIR: INDICATES FEW OR NO CLOUDS BELOW 12,000 FEET WITH NO
SIGNIFICANT WEATHER AND/OR OBSTRUCTIONS TO VISIBILITY.

MSZ001>002-007>008-010>013-018>021-025>028-034>036-311100-
NORTHWEST MISSISSIPPI

CITY           SKY/WX    TMP DP  RH WIND       PRES   REMARKS
BATESVILLE     LGT RAIN  69  66  91 SW8       29.99R
CLARKSDALE     CLOUDY    70  70 100 CALM      29.97S FOG
CLEVELAND      HVY RAIN  68  68 100 N12       29.93F
GREENWOOD      LGT RAIN  72  67  84 N5        29.92F
GREENVILLE     CLOUDY    70  66  87 CALM      29.93R
OLIVE BRANCH   MOCLDY    68  68 100 N5        29.95R
OXFORD         MOCLDY    68  64  88 W10G16    29.99R
TUNICA         LGT RAIN  68  64  88 W6        29.99R
WINONA         FAIR      71  67  87 N6        29.93S
$$

MSZ003>006-009-014>017-022>024-029>033-037>039-311100-
NORTHEAST MISSISSIPPI

CITY           SKY/WX    TMP DP  RH WIND       PRES   REMARKS
COLUMBUS AFB   CLOUDY    69  66  89 CALM      29.91R
CORINTH        FAIR      66  64  94 CALM      29.94R
GOLDN TRIANGLE CLOUDY    70  64  83 NW3       29.92R
STARKVILLE     FAIR      68  64  88 CALM      29.91S
TUPELO         CLOUDY    70  63  78 N5        29.92S
$$

MSZ040-058-311100-
CENTRAL MISSISSIPPI

CITY           SKY/WX    TMP DP  RH WIND       PRES   REMARKS
JACKSON INTL   PTCLDY    68  65  90 SW3       29.93R
JACKSON HAWKNS PTCLDY    70  65  84 CALM      29.94R
MADISON        FAIR      68  64  88 CALM      29.93R
MERIDIAN KEY   CLEAR     69  64  84 S6        29.92R
MERIDIAN NAS   CLEAR     68  64  87 NW6       29.92R FOG
VICKSBURG TVR  CLOUDY    70  67  90 E3        29.93R
VICKSBURG VKS  MOSUNNY   68  66  94 CALM      29.94R
$$

MSZ059>079-311100-
SOUTH MISSISSIPPI

CITY           SKY/WX    TMP DP  RH WIND       PRES   REMARKS
BROOKHAVEN     FAIR     N/A N/A N/A CALM      29.95R
COLUMBIA       FAIR      66  66 100 CALM      29.97S FOG
HATTIESBURG    CLEAR     72  68  87 CALM      29.93S
MCCOMB         CLOUDY    68  65  90 CALM      29.94R
NATCHEZ        CLOUDY    68  64  88 CALM      29.93R
PINE BELT      CLEAR     70  64  83 CALM      29.94S
$$

MSZ080>082-311100-
COASTAL MISSISSIPPI

CITY           SKY/WX    TMP DP  RH WIND       PRES   REMARKS
BILOXI         CLOUDY    76  73  89 VRB1      29.92R
PASCAGOULA     CLOUDY    68  67  96 CALM      29.92R
GULFPORT       CLEAR     73  71  93 CALM      29.91R
$$




USA.gov is the U.S. government's official web portal to all federal, state and local government web resources and services.